Torna al catalogo

SITRO-AIS-55

AttivoNavigazioneSSO
NORAD 59778·PAYLOAD·🇷🇺 Russia
Questo nome del satellite non è ancora stato confermato da fonti ufficiali.

Lanciato May 16, 2024 da Plesetsk Cosmodrome

Loading…

Prossimi Passaggi (prossime 24 ore)

TLE

AggiornatoSource: Space-Track

Epoca: Sep 14, 2026, 08:13 UTC

1 59778U 24092F   26257.34271406  .00017766  00000-0  43542-3 0  9990
2 59778  97.6688  34.7514 0006674 183.2188 176.9016 15.40779811129487

Traccia SITRO-AIS-55 in tempo reale con AllMySat

Download on the App Store